Location: Vinland
(47.7731°N, 122.6974°W)
Time: 20:24:05
(UTC+00:00)

Vanguard 1 Rocket - Pass Details

Date: 28 March 2023
Orbit: 655 x 4220 km, 34.3° (Epoch: 05 June)

Event Time Altitude Azimuth Distance (km) Brightness Sun altitude
Rises 04:47:08 0° 215° (SW) 8,385 12.4 -22.0°
Reaches altitude 10° 04:53:50 10° 207° (SSW) 7,417 11.9 -22.9°
Maximum altitude 05:14:53 35° 153° (SSE) 4,889 10.5 -25.8°
Enters shadow 05:18:17 34° 137° (SE) 4,745 10.4 -26.2°
